FENGYUN 1C DEB, 31546

Orbit data source: Space-Track

FENGYUN 1C DEB, 31546 is space debris in SSO originally from a launch on Mon, 10 May 1999 UTC launched from the Taiyaun Space Center, China (TSC). Fengyun 1C debris stems from the Chinese weather satellite Fengyun-1C, which was intentionally destroyed by a Chinese anti-satellite missile in 2007. This event dramatically increased the amount of space debris, with thousands of trackable fragments posing hazards to satellites and human spaceflight. The Fengyun 1C debris cloud has become a focal point in discussions about space sustainability and the need for international regulations to prevent the creation of new debris.

Loading next visibility...
Identifier
31546, 1999-025BYM
Orbit
SSO
Country
Flag of CNCN / PRC
Related business
Manufacturer
Unknown
Mission
Spacecraft
Bus & Motor
Unknown
Mass
Unknown
Launch date (UTC)
1999-05-10 (27 years ago)
Launch vehicle
Unknown
Launch site
Taiyaun Space Center, China (TSC)
Object type
Payload
Rocket body
Debris
Shape & HBR
Unknown shape, 0.1 m
Radar Cross Section
Small (<0.1 m²)

Expand to show TLE details & history
Last TLE update: 19 hours ago

TLE from 19 hours ago
0 FENGYUN 1C DEB
1 31546U 99025BYM 26170.10518245  .00001987  00000-0  96569-3 0  9999
2 31546  98.2279 229.8913 0140052 312.3144  46.6232 14.14306893974509
Epoch: 2026-06-19T02:31Z
TLE epoch observation values (Epoch: 2026-06-19T02:31:27.763Z)
Latitude
0.00002°
Longitude
-75.31332°
Altitude
778.865 km
Speed
7.5 km/s
True Right ascension
15h 19m 33s
True Declination
0° 00' 00"
Sunlit
Object was in full shadow at epoch
Visualization orbit readout
Latitude
Unknown
Longitude
Unknown
Altitude
Unknown
Speed
Unknown
Apparent Right ascension
Unknown
Apparent Declination
Unknown
Sunlit
N/A
Visualization observer readout
Local Sidereal Time
08:47:32
Azimuth
Unknown
Elevation
Unknown
Doppler factor
Unknown
Orbital elements
Apogee altitude
942.931 km
Perigee altitude
740.697 km
Semi-major axis
7,219.951 km
Eccentricity
0.01401
Inclination
98.2279°
RAAN
229.8913°
Arg. of periapsis
312.3144°
True anomaly
47.80382°
Mean anomaly
46.6232°
Eccentric anomaly
47.21209°
Mean motion
3.53787 °/min
Orbital period
101.76 mins
BSTAR
0.00096569
Loading maneuver chart data...
Computing Atmospheric mass density...

Documentation

Showing up to 5 results
|